FENGYUN 1C DEB, 30406

Orbit data source: Space-Track

FENGYUN 1C DEB, 30406 is space debris in SSO originally from a launch on Mon, 10 May 1999 UTC launched from the Taiyaun Space Center, China (TSC). Fengyun 1C debris stems from the Chinese weather satellite Fengyun-1C, which was intentionally destroyed by a Chinese anti-satellite missile in 2007. This event dramatically increased the amount of space debris, with thousands of trackable fragments posing hazards to satellites and human spaceflight. The Fengyun 1C debris cloud has become a focal point in discussions about space sustainability and the need for international regulations to prevent the creation of new debris.

Loading next visibility...
Identifier
30406, 1999-025ADV
Orbit
SSO
Country
Flag of CNCN / PRC
Related business
Manufacturer
Unknown
Mission
Spacecraft
Bus & Motor
Unknown
Mass
Unknown
Launch date (UTC)
1999-05-10 (27 years ago)
Launch vehicle
Unknown
Launch site
Taiyaun Space Center, China (TSC)
Object type
Payload
Rocket body
Debris
Shape & HBR
Unknown shape, 0.1 m
Radar Cross Section
Medium (>0.1 m² and <1 m²)

Expand to show TLE details & history
Last TLE update: 1 week ago

TLE from 1 week ago
0 FENGYUN 1C DEB
1 30406U 99025ADV 26152.60700090  .00001009  00000-0  10971-2 0  9996
2 30406  98.6128  27.9990 0276489 273.9921 141.2544 13.59729987954889
Epoch: 2026-06-01T14:34Z
TLE epoch observation values (Epoch: 2026-06-01T14:34:04.877Z)
Latitude
56.28252°
Longitude
-93.66427°
Altitude
1,208.086 km
Speed
7.175 km/s
True Right ascension
00h 59m 47s
True Declination
56° 07' 59"
Sunlit
Object was in daylight at epoch
Visualization orbit readout
Latitude
Unknown
Longitude
Unknown
Altitude
Unknown
Speed
Unknown
Apparent Right ascension
Unknown
Apparent Declination
Unknown
Sunlit
N/A
Visualization observer readout
Local Sidereal Time
07:04:11
Azimuth
Unknown
Elevation
Unknown
Doppler factor
Unknown
Orbital elements
Apogee altitude
1,238.84 km
Perigee altitude
828.971 km
Semi-major axis
7,412.043 km
Eccentricity
0.02765
Inclination
98.6128°
RAAN
27.999°
Arg. of periapsis
273.9921°
True anomaly
143.18488°
Mean anomaly
141.2544°
Eccentric anomaly
142.2248°
Mean motion
3.40123 °/min
Orbital period
105.84 mins
BSTAR
0.0010971
Loading maneuver chart data...
Computing Atmospheric mass density...
Loading historical data...
Loading historical data...
Loading historical data...
Loading historical data...
Loading historical data...
Loading historical data...
Loading historical data...

Documentation

Showing up to 5 results
|